Location: Marsån
(66.4167°N, 22.2833°E)
Time: 09:58:44
(UTC+00:00)

Cosmos 1437 Rocket - Pass Details

Date: 24 February 2024
Orbit: 482 x 536 km, 81.2° (Epoch: 15 April)

Event Time Altitude Azimuth Distance (km) Brightness Sun altitude
Rises 18:14:57 0° 217° (SW) 2,665 6.6 -17.6°
Reaches altitude 10° 18:17:10 10° 223° (SW) 1,769 5.7 -17.8°
Maximum altitude 18:20:58 51° 300° (WNW) 662 3.6 -18.2°
Drops below altitude 10° 18:24:43 10° 17° (NNE) 1,744 5.4 -18.5°
Sets 18:26:53 0° 23° (NNE) 2,623 6.3 -18.8°
